{"data":{"norad_id":62323,"epoch":"2026-09-22T21:48:35.851392Z","epoch_age_seconds":103854,"freshness":"FRESH","line1":"1 62323U 24240A   26265.90874828  .00000049  00000+0  79979-4 0  9992","line2":"2 62323  86.4980 310.2851 0001669  89.7386 270.3939 13.24414314 85571","mean_motion":13.24414314,"eccentricity":0.0001669,"inclination_deg":86.498,"raan_deg":310.2851,"arg_perigee_deg":89.7386,"mean_anomaly_deg":270.3939,"bstar":7.9979e-5,"rev_number":8557,"period_min":108.72730570624,"perigee_km":1166.6463646116,"apogee_km":1169.165233698,"semimajor_km":7546.0427991548,"source":"CELESTRAK","updated_at":"2026-09-23T09:00:21.353281Z"}}